, AK

(GMT )
Portage Glacier

Weather History for PATO - December, 2012

Change the Weather History Date:

Saturday, December 8, 2012

  Actual Average Record
Temperature  
Mean Temperature 31 °F -  
Max Temperature 36 °F - - ()
Min Temperature 27 °F - - ()
Degree Days  
Heating Degree Days 34    
Moisture  
Dew Point 28 °F    
Average Humidity 87    
Maximum Humidity 96    
Minimum Humidity 82    
Precipitation  
Precipitation 0.55 in - - ()
Sea Level Pressure  
Sea Level Pressure 29.69 in    
Wind  
Wind Speed 14 mph (ESE)    
Max Wind Speed 28 mph    
Max Gust Speed 60 mph    
Visibility 1 miles    
Events Fog , Snow    
Averages and records for this station are not official NWS values.
T = Trace of Precipitation, MM = Missing Value Source: NWS Daily Summary

Daily Weather History Graph

Daily Weather History Graph

Search for Another Location

Airport or City:

Trip Planner

Search our weather history database for the weather conditions in past years. The results will help you decide how hot, cold, wet, or windy it might be!

Date:

Astronomy

Dec. 08, 2012 Rise Set
Actual Time 9:51 AM AKST 3:43 PM AKST
Civil Twilight 8:52 AM AKST 4:42 PM AKST
Nautical Twilight 7:54 AM AKST 5:40 PM AKST
Astronomical Twilight 7:02 AM AKST 6:32 PM AKST
Moon 3:11 AM AKST (12/8) 1:27 PM AKST (12/8)
Length of Visible Light 7h 49m
Length of Day
5h 51m
Waning Crescent, 27% of the Moon is Illuminated
Dec 8
Waning Crescent
Dec 12
New
Dec 19
First Quarter
Dec 28
Full
Jan 4
Last Quarter

Hourly Weather History & Observations

Time (AKST) Temp. Windchill Dew Point Humidity Pressure Visibility Wind Dir Wind Speed Gust Speed Precip Events Conditions
12:30 AM 27.0 °F 18.0 °F 25.0 °F 92% 29.93 in 2.0 mi SSE 9.2 mph - 0.00 in Snow Light Snow
12:53 AM 27.0 °F 19.5 °F 25.0 °F 92% 29.94 in 2.0 mi Variable 6.9 mph - 0.00 in Snow Light Snow
1:11 AM 27.0 °F 19.5 °F 26.1 °F 96% 29.94 in 1.5 mi SE 6.9 mph - 0.00 in Snow Light Snow
1:22 AM 27.0 °F 18.0 °F 26.1 °F 96% 29.94 in 2.5 mi SSE 9.2 mph - 0.00 in Snow Light Snow
1:42 AM 27.0 °F 19.5 °F 26.1 °F 96% 29.94 in 1.2 mi SE 6.9 mph - 0.00 in Snow Light Snow
1:53 AM 27.0 °F 18.7 °F 26.1 °F 96% 29.95 in 1.0 mi SSE 8.1 mph 16.1 mph 0.01 in Snow Light Snow
3:06 AM 27.0 °F 17.3 °F 26.1 °F 96% 29.93 in 2.5 mi SSE 10.4 mph - 0.00 in Snow Light Snow
3:29 AM 28.0 °F 18.6 °F 26.1 °F 92% 29.93 in 1.5 mi SE 10.4 mph 18.4 mph 0.00 in Snow Light Snow
3:53 AM 27.0 °F 18.0 °F 26.1 °F 96% 29.94 in 1.0 mi SE 9.2 mph 19.6 mph 0.00 in Snow Light Snow
4:01 AM 28.0 °F 20.0 °F 27.0 °F 96% 29.92 in 1.0 mi SE 8.1 mph - 0.01 in Snow Light Snow
4:31 AM 28.9 °F 19.8 °F 26.1 °F 89% 29.92 in 2.0 mi ESE 10.4 mph 26.5 mph 0.01 in Snow Light Snow
4:41 AM 28.0 °F 17.0 °F 26.1 °F 92% 29.92 in 1.5 mi SE 13.8 mph 21.9 mph 0.01 in Snow Light Snow
4:53 AM 28.9 °F 19.8 °F 26.1 °F 89% 29.93 in 1.8 mi SE 10.4 mph 18.4 mph 0.01 in Snow Light Snow
5:53 AM 30.0 °F 20.0 °F 26.1 °F 85% 29.91 in 2.0 mi ESE 12.7 mph 26.5 mph 0.00 in Snow Light Snow
6:03 AM 28.9 °F 18.2 °F 26.1 °F 89% 29.89 in 1.5 mi SE 13.8 mph 24.2 mph 0.00 in Snow Light Snow
6:53 AM 30.0 °F 19.5 °F 26.1 °F 85% 29.89 in 1.0 mi ESE 13.8 mph 27.6 mph 0.01 in Snow Light Snow
7:08 AM 28.9 °F 19.2 °F 26.1 °F 89% 29.89 in 2.5 mi SE 11.5 mph 23.0 mph 0.00 in Snow Light Snow
7:23 AM 28.9 °F 18.6 °F 26.1 °F 89% 29.88 in 2.0 mi SE 12.7 mph 23.0 mph 0.00 in Snow Light Snow
7:53 AM 28.9 °F 17.7 °F 26.1 °F 89% 29.88 in 1.8 mi SE 15.0 mph 25.3 mph 0.00 in Snow Light Snow
7:57 AM 28.9 °F 20.4 °F 26.1 °F 89% 29.87 in 2.0 mi SE 9.2 mph 25.3 mph 0.00 in Snow Light Snow
8:17 AM 28.9 °F 18.6 °F 26.1 °F 89% 29.86 in 1.5 mi SE 12.7 mph 25.3 mph 0.00 in Snow Light Snow
8:53 AM 28.9 °F 16.9 °F 25.0 °F 85% 29.86 in 1.5 mi ESE 17.3 mph 34.5 mph 0.00 in Snow Light Snow
9:35 AM 28.9 °F 19.2 °F 25.0 °F 85% 29.83 in 1.5 mi SE 11.5 mph 25.3 mph 0.00 in Snow Light Snow
9:48 AM 28.4 °F 17.5 °F 24.8 °F 86% 29.82 in 2.5 mi ESE 13.8 mph 26.5 mph 0.00 in Snow Light Snow
9:53 AM 28.9 °F 16.5 °F 25.0 °F 85% 29.83 in 3.0 mi ESE 18.4 mph 31.1 mph 0.00 in Snow Light Snow
10:39 AM 30.0 °F 19.5 °F 25.0 °F 82% 29.81 in 2.0 mi SE 13.8 mph 36.8 mph 0.01 in Snow Light Snow
10:53 AM 30.9 °F 19.1 °F 26.1 °F 82% 29.81 in 2.5 mi ESE 18.4 mph 32.2 mph 0.01 in Snow Light Snow
11:07 AM 30.9 °F 18.7 °F 26.1 °F 82% 29.79 in 1.2 mi SE 19.6 mph 39.1 mph 0.00 in Snow Light Snow
11:12 AM 30.9 °F 17.8 °F 26.1 °F 82% 29.79 in 0.8 mi East 23.0 mph 36.8 mph 0.00 in Snow Light Snow
11:22 AM 30.9 °F 19.1 °F 27.0 °F 85% 29.79 in 0.5 mi ESE 18.4 mph 32.2 mph 0.00 in Fog , Snow Snow
11:53 AM 32.0 °F 19.5 °F 27.0 °F 82% 29.77 in 0.5 mi ESE 21.9 mph 40.3 mph 0.01 in Snow Snow
11:58 AM 30.9 °F 19.4 °F 27.0 °F 85% 29.76 in 0.2 mi SE 17.3 mph 35.7 mph 0.00 in Fog , Snow Snow
12:44 PM 32.0 °F 19.5 °F 28.0 °F 85% 29.71 in 0.5 mi ESE 21.9 mph 49.5 mph 0.02 in Fog , Snow Snow
12:53 PM 32.0 °F 18.9 °F 28.0 °F 85% 29.71 in 0.5 mi ESE 24.2 mph 49.5 mph 0.02 in Fog , Snow Light Snow
1:28 PM 32.0 °F 18.6 °F 28.0 °F 85% 29.66 in 0.2 mi East 25.3 mph 41.4 mph 0.01 in Fog , Snow Snow
1:44 PM 33.1 °F 20.1 °F 28.0 °F 82% 29.65 in 0.5 mi East 25.3 mph 44.9 mph 0.02 in Snow Snow
1:53 PM 33.1 °F 22.2 °F 28.0 °F 82% 29.64 in 0.5 mi SE 17.3 mph 47.2 mph 0.02 in Snow Snow
2:03 PM 33.1 °F 21.9 °F 28.9 °F 85% 29.63 in 0.2 mi East 18.4 mph 35.7 mph 0.01 in Fog , Snow Snow
2:17 PM 32.0 °F 18.9 °F 28.9 °F 88% 29.62 in 0.2 mi ESE 24.2 mph 41.4 mph 0.02 in Fog , Snow Snow
2:53 PM 33.1 °F 21.5 °F 28.9 °F 85% 29.58 in 0.2 mi East 19.6 mph 52.9 mph 0.04 in Fog , Snow Snow
3:53 PM 33.1 °F - 28.9 °F 85% 29.51 in 0.5 mi North - - 0.07 in Fog , Snow Snow
4:53 PM 33.1 °F 19.8 °F 30.0 °F 89% 29.49 in 0.5 mi East 26.5 mph 48.3 mph 0.06 in Fog , Snow Snow
5:53 PM 34.0 °F 22.4 °F 30.0 °F 85% 29.45 in 0.5 mi East 20.7 mph 52.9 mph 0.07 in Fog , Snow Snow
6:09 PM 34.0 °F 22.1 °F 30.0 °F 85% 29.42 in 0.8 mi ESE 21.9 mph 56.4 mph 0.01 in Snow Light Snow
6:53 PM 34.0 °F 22.7 °F 30.0 °F 85% 29.38 in 0.8 mi East 19.6 mph 59.8 mph 0.05 in Snow Light Snow
7:12 PM 34.0 °F 23.8 °F 30.0 °F 85% 29.35 in 1.0 mi ESE 16.1 mph 55.2 mph 0.01 in Snow Light Snow
7:16 PM 34.0 °F 21.0 °F 30.0 °F 85% 29.37 in 0.8 mi East 26.5 mph 55.2 mph 0.01 in Snow Light Snow
7:41 PM 34.0 °F 20.8 °F 30.0 °F 85% 29.35 in 1.0 mi SE 27.6 mph 49.5 mph 0.03 in Snow Light Snow
7:53 PM 35.1 °F 23.5 °F 30.0 °F 82% 29.35 in 1.0 mi East 21.9 mph 51.8 mph 0.04 in Snow Light Snow
8:53 PM 34.0 °F 20.8 °F 30.0 °F 85% 29.31 in 1.2 mi ESE 27.6 mph 50.6 mph 0.04 in Snow Light Snow
9:11 PM 34.0 °F 23.8 °F 30.0 °F 85% 29.31 in 2.0 mi SE 16.1 mph 43.7 mph 0.00 in Snow Light Snow
9:45 PM 35.1 °F 23.8 °F 30.9 °F 85% 29.31 in 1.5 mi ESE 20.7 mph 36.8 mph 0.02 in Snow Light Snow
9:53 PM 35.1 °F 24.5 °F 30.0 °F 82% 29.31 in 1.8 mi ESE 18.4 mph 35.7 mph 0.02 in Snow Light Snow
10:00 PM 34.0 °F 23.0 °F 30.9 °F 89% 29.31 in 2.0 mi ESE 18.4 mph 32.2 mph 0.00 in Snow Light Snow
10:53 PM 35.1 °F 25.9 °F 32.0 °F 89% 29.30 in 2.5 mi SE 13.8 mph 28.8 mph 0.04 in Snow Light Snow
11:21 PM 35.1 °F 24.8 °F 32.0 °F 89% 29.30 in 3.0 mi East 17.3 mph 29.9 mph 0.02 in Snow Light Snow
11:53 PM 36.0 °F 26.0 °F 30.9 °F 82% 29.30 in 3.0 mi SE 17.3 mph 38.0 mph 0.03 in Snow Light Snow